Hourly Data Report for May 06, 2012

All times are specified in Local Standard Time (LST). Add 1 hour to adjust for Daylight Saving Time where and when it is observed.

OTTAWA INTL A
ONTARIO

45°19'00.000" N
75°40'00.000" W
114.90 m
6106001
71628
YOW

Download Data

Hourly Data (May 2012)
Hourly Data Report for May 6, 2012
Temp Definition
°C
Dew Point Temp Definition
°C
Rel Hum Definition
%
Wind Dir Definition
10's deg

Wind Spd Definition
km/h
Visibility Definition
km
Stn Press Definition
kPa
Hmdx Definition


Wind Chill Definition


Weather Definition


TIME
00:00 Legend Double Dagger 6.3 -2.6 53 2 10 10.0 100.66     LegendNANA
01:00 Legend Double Dagger 4.9 -1.8 62 3 10 10.0 100.67     Clear
02:00 Legend Double Dagger 4.4 -0.6 70 6 8 10.0 100.67     LegendNANA
03:00 Legend Double Dagger 4.2 0.5 77 4 13 10.0 100.68     LegendNANA
04:00 Legend Double Dagger 4.1 0.6 78 4 15 10.0 100.68     Mainly Clear
05:00 Legend Double Dagger 4.7 0.8 76 5 15 10.0 100.71     LegendNANA
06:00 Legend Double Dagger 6.9 0.8 65 7 13 10.0 100.75     LegendNANA
07:00 Legend Double Dagger 9.2 -0.4 51 6 19 10.0 100.82     Mainly Clear
08:00 Legend Double Dagger 10.8 -0.9 44 5 15 10.0 100.87     LegendNANA
09:00 Legend Double Dagger 12.8 -1.1 38 5 9 10.0 100.88     LegendNANA
10:00 Legend Double Dagger 14.8 -2.1 31 9 15 10.0 100.85     Mainly Clear
11:00 Legend Double Dagger 15.7 -1.3 31 5 8 10.0 100.80     LegendNANA
12:00 Legend Double Dagger 16.8 -2.2 27 34 9 10.0 100.76     LegendNANA
13:00 Legend Double Dagger 16.7 -2.8 26   0 10.0 100.68     Mainly Clear
14:00 Legend Double Dagger 17.9 -1.3 27   0 10.0 100.67     LegendNANA
15:00 Legend Double Dagger 19.0 -1.3 25 32 13 10.0 100.65     LegendNANA
16:00 Legend Double Dagger 19.1 -1.3 25 3 10 10.0 100.60     Mainly Clear
17:00 Legend Double Dagger 18.8 -2.7 23 31 6 10.0 100.57     LegendNANA
18:00 Legend Double Dagger 18.0 -2.2 25   0 10.0 100.60     LegendNANA
19:00 Legend Double Dagger 16.5 -1.5 29 19 5 10.0 100.59     Mostly Cloudy
20:00 Legend Double Dagger 15.2 -0.9 33 21 7 10.0 100.58     LegendNANA
21:00 Legend Double Dagger 12.4 -1.1 39 24 4 10.0 100.58     LegendNANA
22:00 Legend Double Dagger 10.4 0.2 49   0 10.0 100.56     Mostly Cloudy
23:00 Legend Double Dagger 5.7 0.1 67 12 14 10.0 100.58     LegendNANA

Notes on Data Quality.

Legend

  • E = Estimated
  • M = Missing
  • NA = Not Available
  • ‡ = Partner data that is not subject to review by the National Climate Archives
Date modified: